Location: Newark
(43.6583°N, 1.6617°E)
Time: 08:28:25
(UTC+00:00)

Vanguard 2 Rocket - Pass Details

Date: 20 August 2019
Orbit: 554 x 3326 km, 32.9° (Epoch: 21 September)

Event Time Altitude Azimuth Distance (km) Brightness Sun altitude
Exits shadow 01:40:24 23° 159° (SSE) 3,881 9.7 -29.0°
Maximum altitude 01:44:22 26° 137° (SE) 4,023 9.9 -28.7°
Drops below altitude 10° 01:57:29 10° 90° (E) 6,028 11.4 -27.4°
Sets 02:03:48 0° 81° (E) 7,255 12.1 -26.8°
